Flag for Kenya Weather past 2 weeks in Nairobi, Kenya

Now
59 °F

Passing clouds.


Feels Like: 59 °F
Forecast: 58 / 68 °F
Wind: No wind

Location: Nairobi / Wilson

Current Time: Jul 29, 2014 at 4:13:34 AM

Latest Report: Jul 29, 2014 at 3:00 AM


Visibility: N/A

Pressure: 30.21 "Hg

Humidity: 88%

Dew point: 55 °F

Location of NairobiLocation

Historic Weather in Nairobi — Graph

°F

Nairobi temperature yesterday

Maximum temperature yesterday: 75 °F (at 3:00 PM)
Minimum temperature yesterday: 57 °F (at 7:00 AM)
Average temperature yesterday: 67 °F

Past Weeks' High & Low Weather Summary

 TemperatureHumidityPressure
High81 °F (Jul 19, 4:00 PM)94% (Jul 14, 8:00 AM)30.30 "Hg (Jul 14, 8:00 AM)
Low55 °F (Jul 14, 8:00 AM)30% (Jul 22, 12:00 PM)30.12 "Hg (Jul 14, 6:00 PM)
Average65 °F73%30.20 "Hg
* Reported Jul 14 8:00 AM — Jul 29 3:00 AM, Nairobi, Weather by CustomWeather, © 2014

Note: Actual official high and low records may vary slightly from our data, if they occured in-between our weather recording intervals... More about our weather records

Advertising

Nairobi weather history for previous 24 hours

 ConditionsComfort  
Time TempWeatherWind HumidityBarometerVisibility
3:00 AM
Jul 29
59 °FPassing clouds.No wind88%30.21 "HgN/A
2:00 AM61 °FPassing clouds.No wind83%30.21 "HgN/A
1:00 AM61 °FPassing clouds.No wind83%30.21 "HgN/A
12:00 AM61 °FPassing clouds.No wind83%30.21 "HgN/A
11:00 PM
Jul 28
63 °FPassing clouds.No wind73%30.24 "HgN/A
10:00 PM63 °FMild.No wind77%30.24 "HgN/A
9:00 PM66 °FPassing clouds.6 mph56%30.21 "HgN/A
8:00 PM68 °FPassing clouds.8 mph56%30.21 "HgN/A
7:00 PM72 °FPassing clouds.17 mph44%30.18 "HgN/A
6:00 PM73 °FPartly sunny.10 mph38%30.15 "HgN/A
5:00 PM75 °FScattered clouds.12 mph36%30.15 "HgN/A
4:00 PM75 °FScattered clouds.16 mph41%30.15 "HgN/A
3:00 PM75 °FScattered clouds.8 mph44%30.18 "HgN/A
2:00 PM73 °FScattered clouds.No wind44%30.24 "HgN/A
1:00 PM70 °FPartly sunny.8 mph53%30.24 "HgN/A
12:00 PM66 °FPartly sunny.3 mph64%30.27 "HgN/A
11:00 AM66 °FPartly sunny.7 mph68%30.27 "HgN/A
10:00 AM63 °FPartly sunny.6 mph77%30.30 "HgN/A
9:00 AM61 °FPartly sunny.7 mph83%30.30 "HgN/A
8:00 AM57 °FPartly sunny.7 mph94%30.24 "HgN/A
7:00 AM57 °FPartly sunny.7 mph88%30.21 "HgN/A
Weather by CustomWeather, © 2014

See weather overviewHow to use our weather pages